Weather History for KGUS - March, 2013

Change the Weather History Date:

Tuesday, March 19, 2013

  Actual Average Record
Temperature  
Mean Temperature 29 °F -  
Max Temperature 37 °F 46 °F 82 °F (2012)
Min Temperature 21 °F 29 °F 21 °F (2006)
Degree Days  
Heating Degree Days 36    
Moisture  
Dew Point 17 °F    
Average Humidity 67    
Maximum Humidity 80    
Minimum Humidity 44    
Precipitation  
Precipitation 0.04 in - - ()
Sea Level Pressure  
Sea Level Pressure 29.93 in    
Wind  
Wind Speed 24 mph (West)    
Max Wind Speed 32 mph    
Max Gust Speed 43 mph    
Visibility 10 miles    
Events      
Averages and records for this station are not official NWS values.
T = Trace of Precipitation, MM = Missing Value Source: NWS Daily Summary

Daily Weather History Graph

Daily Weather History Graph

Search for Another Location

Airport or City:

Trip Planner

Search our weather history database for the weather conditions in past years. The results will help you decide how hot, cold, wet, or windy it might be!

Date:

Astronomy

Mar. 19, 2013 Rise Set
Actual Time 7:49 AM EDT 7:55 PM EDT
Civil Twilight 7:21 AM EDT 8:23 PM EDT
Nautical Twilight 6:50 AM EDT 8:55 PM EDT
Astronomical Twilight 6:17 AM EDT 9:27 PM EDT
Moon 12:37 PM EDT (3/19) 2:44 AM EDT (3/19)
Length of Visible Light 13h 01m
Length of Day
12h 06m
Waxing Crescent, 49% of the Moon is Illuminated
Mar 19
Waxing Crescent
Mar 19
First Quarter
Mar 27
Full
Apr 3
Last Quarter
Apr 10
New

Hourly Weather History & Observations

Time (EDT) Temp. Windchill Dew Point Humidity Pressure Visibility Wind Dir Wind Speed Gust Speed Precip Events Conditions
12:55 AM 27.1 °F 11.8 °F 19.8 °F 74% 29.83 in 10.0 mi West 26.5 mph 42.6 mph 0.02 in   Clear
1:54 AM 26.6 °F 12.0 °F 19.4 °F 74% 29.83 in 10.0 mi West 23.0 mph 31.1 mph N/A   Mostly Cloudy
1:55 AM 26.6 °F 11.4 °F 19.4 °F 74% 29.83 in 10.0 mi West 25.3 mph 31.1 mph N/A   Mostly Cloudy
2:37 AM 26.6 °F 13.1 °F 21.2 °F 80% 29.85 in 10.0 mi West 19.6 mph 31.1 mph N/A   Overcast
2:42 AM 26.6 °F 11.1 °F 21.2 °F 80% 29.85 in 10.0 mi West 26.5 mph - N/A   Overcast
2:55 AM 25.3 °F 10.0 °F 19.0 °F 77% 29.86 in 10.0 mi West 24.2 mph 36.8 mph 0.00 in   Overcast
2:59 AM 24.8 °F 11.1 °F 19.4 °F 80% 29.87 in 10.0 mi West 18.4 mph 36.8 mph N/A   Overcast
3:07 AM 24.8 °F 9.0 °F 17.6 °F 74% 29.86 in 10.0 mi West 25.3 mph 32.2 mph N/A   Overcast
3:13 AM 24.8 °F 9.3 °F 17.6 °F 74% 29.87 in 10.0 mi West 24.2 mph 34.5 mph N/A   Light Freezing Rain
3:42 AM 24.8 °F 9.0 °F 15.8 °F 69% 29.87 in 10.0 mi West 25.3 mph 31.1 mph N/A   Overcast
3:55 AM 24.3 °F 9.6 °F 15.3 °F 69% 29.87 in 10.0 mi West 20.7 mph 35.7 mph 0.00 in   Overcast
4:04 AM 24.8 °F 9.3 °F 15.8 °F 69% 29.87 in 10.0 mi West 24.2 mph 29.9 mph N/A   Overcast
4:09 AM 24.8 °F 10.0 °F 15.8 °F 69% 29.87 in 10.0 mi West 21.9 mph 29.9 mph N/A   Overcast
4:14 AM 24.8 °F 10.0 °F 15.8 °F 69% 29.87 in 10.0 mi West 21.9 mph 28.8 mph N/A   Overcast
4:29 AM 24.8 °F 10.7 °F 17.6 °F 74% 29.87 in 10.0 mi West 19.6 mph - N/A   Overcast
4:39 AM 24.8 °F 8.1 °F 15.8 °F 69% 29.86 in 10.0 mi West 28.8 mph 34.5 mph N/A   Overcast
4:55 AM 23.9 °F 8.8 °F 16.3 °F 73% 29.86 in 10.0 mi West 21.9 mph 29.9 mph 0.00 in   Overcast
5:34 AM 23.0 °F 6.9 °F 15.8 °F 74% 29.90 in 10.0 mi West 24.2 mph 33.4 mph N/A   Overcast
5:39 AM 23.0 °F 6.9 °F 15.8 °F 74% 29.89 in 10.0 mi West 24.2 mph 33.4 mph N/A   Overcast
5:50 AM 23.0 °F 6.0 °F 15.8 °F 74% 29.90 in 10.0 mi West 27.6 mph 36.8 mph N/A   Mostly Cloudy
5:55 AM 22.8 °F 5.4 °F 15.1 °F 72% 29.89 in 10.0 mi West 28.8 mph 35.7 mph N/A   Scattered Clouds
6:47 AM 23.0 °F 7.2 °F 15.8 °F 74% 29.91 in 10.0 mi West 23.0 mph 31.1 mph N/A   Mostly Cloudy
6:54 AM 23.0 °F 6.3 °F 15.8 °F 74% 29.91 in 10.0 mi West 26.5 mph 31.1 mph N/A   Scattered Clouds
6:55 AM 22.6 °F 5.8 °F 14.9 °F 72% 29.91 in 10.0 mi West 26.5 mph 31.1 mph N/A   Scattered Clouds
6:57 AM 23.0 °F 6.3 °F 14.0 °F 68% 29.91 in 10.0 mi West 26.5 mph - N/A   Mostly Cloudy
7:03 AM 23.0 °F 7.6 °F 15.8 °F 74% 29.91 in 10.0 mi West 21.9 mph - N/A   Scattered Clouds
7:55 AM 21.9 °F 6.9 °F 15.1 °F 75% 29.91 in 10.0 mi West 19.6 mph 33.4 mph N/A   Partly Cloudy
8:55 AM 23.0 °F 6.9 °F 15.4 °F 73% 29.92 in 10.0 mi West 24.2 mph 32.2 mph N/A   Clear
9:55 AM 24.3 °F 7.1 °F 13.8 °F 64% 29.92 in 10.0 mi West 29.9 mph 36.8 mph N/A   Clear
10:30 AM 24.8 °F 8.4 °F 14.0 °F 64% 29.90 in 10.0 mi West 27.6 mph 38.0 mph N/A   Clear
10:55 AM 25.3 °F 8.1 °F 13.6 °F 61% 29.95 in 10.0 mi West 32.2 mph 38.0 mph N/A   Partly Cloudy
11:55 AM 27.5 °F 11.0 °F 14.7 °F 59% 29.96 in 10.0 mi West 32.2 mph 38.0 mph N/A   Scattered Clouds
12:55 PM 29.7 °F 14.0 °F 16.0 °F 57% 29.98 in 10.0 mi West 32.2 mph 39.1 mph 0.01 in   Mostly Cloudy
1:55 PM 30.9 °F 16.9 °F 16.7 °F 56% 30.01 in 10.0 mi West 26.5 mph 36.8 mph 0.01 in   Scattered Clouds
2:55 PM 33.1 °F 18.7 °F 17.4 °F 53% 30.01 in 10.0 mi West 32.2 mph 39.1 mph N/A   Mostly Cloudy
3:55 PM 35.4 °F 22.7 °F 19.0 °F 51% 30.01 in 10.0 mi West 27.6 mph 36.8 mph N/A   Partly Cloudy
4:55 PM 36.9 °F 24.9 °F 18.9 °F 48% 30.02 in 10.0 mi West 26.5 mph 34.5 mph N/A   Clear
5:55 PM 37.2 °F 26.1 °F 17.2 °F 44% 30.04 in 10.0 mi West 23.0 mph 31.1 mph N/A   Clear
6:55 PM 36.0 °F 24.2 °F 15.6 °F 44% 30.06 in 10.0 mi West 24.2 mph 33.4 mph N/A   Clear
7:55 PM 34.0 °F 23.0 °F 19.4 °F 55% 30.07 in 10.0 mi West 18.4 mph - N/A   Clear
8:55 PM 32.0 °F 22.1 °F 19.6 °F 60% 30.09 in 10.0 mi West 13.8 mph - N/A   Clear
9:55 PM 31.5 °F 20.5 °F 19.4 °F 61% 30.09 in 10.0 mi West 16.1 mph - N/A   Clear
10:55 PM 30.4 °F 20.0 °F 19.6 °F 64% 30.10 in 10.0 mi West 13.8 mph - N/A   Clear
11:55 PM 30.2 °F 18.9 °F 17.1 °F 58% 30.09 in 10.0 mi West 16.1 mph - N/A   Partly Cloudy